Tracking 29528 objects as of 13-Sep-2024
HD Live streaming from Space Station
objects crossing your sky now

STARLINK-3817

Track STARLINK-3817 now!
10-day predictions
STARLINK-3817 is classified as:


NORAD ID: 52367
Int'l Code: 2022-045AN
Perigee: 545.9 km
Apogee: 547.8 km
Inclination: 53.2 °
Period: 95.4 minutes
Semi major axis: 6917 km
RCS: Unknown
Launch date: April 29, 2022
Source: United States (US)
Launch site: AIR FORCE EASTERN TEST RANGE (AFETR)
Your satellite tracking list
Your tracking list is empty




NASA's NSSDC Master Catalog

Two Line Element Set (TLE):
1 52367U 22045AN  24256.81197561  .00003763  00000-0  25429-3 0  9997
2 52367  53.2157 106.1904 0001431  87.4082 272.7074 15.08851354133968
Source of the keplerian elements: AFSPC